{"data":{"norad_id":64419,"intl_designator":"2025-129H","name":"STARLINK-34512","alt_names":[],"object_type":"PAYLOAD","status":"ACTIVE","operator":null,"country":"US","launch_date":"2025-06-17","launch_site_code":"AFWTR","launch_vehicle":null,"mission":null,"orbit_class":"UNKNOWN","rcs_meters":null,"size_class":null,"mass_kg":null,"dimensions":null,"purposes":["comms"],"wikipedia_slug":null,"has_3d_model":false,"image_url":null,"decayed_at":null,"tle_current":{"epoch":"2026-09-20T12:18:45.150912Z","epoch_age_seconds":133259,"freshness":"FRESH","line1":"1 64419U 25129H   26263.51302258  .00008420  00000+0  29676-3 0  9994","line2":"2 64419  70.0006 300.6940 0003724 276.7893  83.2858 15.29605519 70474","mean_motion":15.29605519,"eccentricity":0.0003724,"inclination_deg":70.0006,"raan_deg":300.694,"arg_perigee_deg":276.7893,"mean_anomaly_deg":83.2858,"bstar":0.00029676,"rev_number":7047,"period_min":94.141919737673,"perigee_km":474.43780784717,"apogee_km":479.54350692639,"semimajor_km":6855.1276573868,"source":"CELESTRAK","updated_at":"2026-09-21T09:00:35.347227Z"}}}